La Porte, IN

1:14 PM CDT on March 30, 2017 (GMT -0500)
La Porte Municipal

Weather History for KPPO - December, 2013

Change the Weather History Date:

Tuesday, December 3, 2013

  Actual Average (KSBN) Record (KSBN)
Temperature  
Mean Temperature 40 °F -  
Max Temperature 48 °F 39 °F 67 °F (1998)
Min Temperature 33 °F 26 °F -5 °F (1942)
Degree Days  
Heating Degree Days 24    
Moisture  
Dew Point 40 °F    
Average Humidity 95    
Maximum Humidity 100    
Minimum Humidity 89    
Precipitation  
Precipitation 0.00 in - - ()
Sea Level Pressure  
Sea Level Pressure 29.76 in    
Wind  
Wind Speed 8 mph (SE)    
Max Wind Speed 13 mph    
Max Gust Speed -    
Visibility 3 miles    
Events      
Averages and records for this station are not official NWS values.
T = Trace of Precipitation, MM = Missing Value Source: NWS Daily Summary

Daily Weather History Graph

Daily Weather History Graph

Search for Another Location

Airport or City:

Trip Planner

Search our weather history database for the weather conditions in past years. The results will help you decide how hot, cold, wet, or windy it might be!

Date:

Astronomy

Dec. 03, 2013 Rise Set
Actual Time 6:56 AM CST 4:17 PM CST
Civil Twilight 6:25 AM CST 4:48 PM CST
Nautical Twilight 5:50 AM CST 5:22 PM CST
Astronomical Twilight 5:17 AM CST 5:56 PM CST
Moon 7:24 AM CST (12/3) 5:20 PM CST (12/3)
Length of Visible Light 10h 22m
Length of Day
9h 20m
New Moon, 1% of the Moon is Illuminated
Dec 3
New Moon
Dec 9
First Quarter
Dec 17
Full
Dec 25
Last Quarter
Jan 1
New

Hourly Weather History & Observations

Time (CST) Temp. Windchill Dew Point Humidity Pressure Visibility Wind Dir Wind Speed Gust Speed Precip Events Conditions
12:15 AM 33.4 °F 24.8 °F 32.0 °F 94% 29.79 in 4.0 mi ESE 11.5 mph - N/A   Overcast
12:35 AM 33.4 °F 24.8 °F 32.0 °F 94% 29.79 in 4.0 mi East 11.5 mph - N/A   Overcast
12:55 AM 33.4 °F 24.3 °F 32.0 °F 94% 29.78 in 4.0 mi ESE 12.7 mph - N/A   Overcast
1:15 AM 33.6 °F 25.6 °F 32.0 °F 94% 29.78 in 4.0 mi ESE 10.4 mph - N/A   Overcast
1:35 AM 33.8 °F 25.8 °F 32.2 °F 94% 29.78 in 4.0 mi ESE 10.4 mph - N/A   Overcast
1:55 AM 33.8 °F 25.8 °F 32.2 °F 94% 29.78 in 4.0 mi ESE 10.4 mph - N/A   Overcast
2:15 AM 33.8 °F 26.4 °F 32.4 °F 94% 29.79 in 4.0 mi ESE 9.2 mph - N/A   Overcast
2:35 AM 33.8 °F 26.4 °F 32.4 °F 94% 29.78 in 4.0 mi ESE 9.2 mph - N/A   Overcast
2:55 AM 34.0 °F 26.0 °F 32.5 °F 94% 29.78 in 4.0 mi ESE 10.4 mph - N/A   Overcast
3:15 AM 34.0 °F 26.6 °F 32.5 °F 94% 29.77 in 4.0 mi ESE 9.2 mph - N/A   Overcast
3:35 AM 34.0 °F 26.6 °F 32.9 °F 96% 29.76 in 3.0 mi ESE 9.2 mph - N/A   Overcast
3:55 AM 34.2 °F 28.2 °F 32.9 °F 95% 29.75 in 4.0 mi ESE 6.9 mph - N/A   Overcast
4:15 AM 34.3 °F 27.7 °F 33.1 °F 95% 29.76 in 3.0 mi ESE 8.1 mph - N/A   Overcast
4:35 AM 34.7 °F 28.1 °F 33.3 °F 94% 29.76 in 3.0 mi ESE 8.1 mph - N/A   Overcast
4:55 AM 34.7 °F 27.5 °F 33.4 °F 95% 29.76 in 3.0 mi ESE 9.2 mph - N/A   Overcast
5:15 AM 34.7 °F 28.1 °F 33.8 °F 97% 29.76 in 3.0 mi ESE 8.1 mph - N/A   Overcast
5:35 AM 34.9 °F 28.3 °F 33.8 °F 96% 29.76 in 3.0 mi SE 8.1 mph - N/A   Overcast
5:55 AM 35.1 °F 29.3 °F 34.0 °F 96% 29.76 in 3.0 mi SE 6.9 mph - N/A   Overcast
6:15 AM 35.1 °F 29.3 °F 34.0 °F 96% 29.75 in 2.5 mi SE 6.9 mph - N/A   Overcast
6:35 AM 35.6 °F 29.9 °F 34.3 °F 95% 29.75 in 2.5 mi SE 6.9 mph - N/A   Overcast
6:55 AM 35.6 °F 29.9 °F 34.2 °F 94% 29.75 in 2.0 mi SE 6.9 mph - N/A   Overcast
7:15 AM 35.6 °F 30.7 °F 34.3 °F 95% 29.76 in 1.8 mi SE 5.8 mph - N/A   Overcast
7:35 AM 35.8 °F 30.1 °F 34.5 °F 95% 29.76 in 1.5 mi SE 6.9 mph - N/A   Overcast
7:55 AM 36.3 °F 31.6 °F 35.1 °F 95% 29.76 in 1.8 mi SE 5.8 mph - N/A   Overcast
8:15 AM 36.7 °F 32.9 °F 35.6 °F 96% 29.77 in 1.8 mi SE 4.6 mph - N/A   Overcast
8:35 AM 37.4 °F - 35.8 °F 94% 29.78 in 1.8 mi Calm Calm - N/A   Overcast
8:55 AM 37.6 °F 32.3 °F 36.0 °F 94% 29.78 in 2.0 mi ESE 6.9 mph - N/A   Overcast
9:15 AM 37.9 °F 33.5 °F 36.3 °F 94% 29.79 in 2.0 mi SE 5.8 mph - N/A   Drizzle
9:35 AM 38.3 °F 33.9 °F 36.7 °F 94% 29.78 in 1.8 mi SE 5.8 mph - N/A   Drizzle
9:55 AM 39.0 °F 35.7 °F 37.4 °F 94% 29.79 in 1.8 mi SSE 4.6 mph - N/A   Overcast
10:15 AM 39.2 °F 33.6 °F 37.6 °F 94% 29.78 in 1.8 mi SE 8.1 mph - N/A   Overcast
10:30 AM 40.1 °F 35.3 °F 38.3 °F 93% 29.77 in 1.8 mi SE 6.9 mph - N/A   Mostly Cloudy
11:15 AM 41.9 °F 38.2 °F 39.7 °F 92% 29.76 in 2.0 mi SSE 5.8 mph - N/A   Overcast
11:35 AM 42.6 °F 39.9 °F 40.5 °F 92% 29.75 in 2.0 mi SE 4.6 mph - N/A   Overcast
11:55 AM 43.7 °F 39.7 °F 41.5 °F 92% 29.74 in 2.5 mi SE 6.9 mph - N/A   Overcast
12:15 PM 44.6 °F 40.7 °F 42.4 °F 92% 29.74 in 2.0 mi SSE 6.9 mph - N/A   Overcast
12:35 PM 45.5 °F 40.8 °F 43.3 °F 92% 29.73 in 2.5 mi SSE 9.2 mph - N/A   Overcast
12:55 PM 46.0 °F 42.5 °F 43.7 °F 92% 29.73 in 2.5 mi SSE 6.9 mph - N/A   Overcast
1:15 PM 46.4 °F 42.4 °F 44.1 °F 92% 29.73 in 2.5 mi SSE 8.1 mph - N/A   Overcast
1:35 PM 46.9 °F - 44.2 °F 90% 29.72 in 3.0 mi SSE 5.8 mph - N/A   Overcast
1:55 PM 47.3 °F - 44.6 °F 90% 29.72 in 3.0 mi SSE 6.9 mph - N/A   Overcast
2:15 PM 47.8 °F - 45.0 °F 90% 29.72 in 3.0 mi SSE 8.1 mph - N/A   Overcast
2:35 PM 48.2 °F - 45.1 °F 89% 29.72 in 3.0 mi SSE 6.9 mph - N/A   Overcast
2:55 PM 48.2 °F - 45.1 °F 89% 29.72 in 3.0 mi SSE 9.2 mph - N/A   Overcast
3:15 PM 48.2 °F - 45.5 °F 90% 29.73 in 3.0 mi SSE 6.9 mph - N/A   Overcast
3:35 PM 47.8 °F - 45.5 °F 92% 29.73 in 3.0 mi SSE 6.9 mph - N/A   Overcast
3:55 PM 47.7 °F - 45.5 °F 92% 29.73 in 2.5 mi SSE 8.1 mph - N/A   Overcast
4:15 PM 47.7 °F - 45.5 °F 92% 29.73 in 2.5 mi South 6.9 mph - N/A   Overcast
4:35 PM 47.5 °F - 45.5 °F 93% 29.73 in 4.0 mi South 6.9 mph - N/A   Overcast
4:55 PM 47.3 °F - 45.5 °F 93% 29.73 in 3.0 mi South 8.1 mph - N/A   Overcast
5:15 PM 47.3 °F - 45.3 °F 93% 29.73 in 3.0 mi South 10.4 mph - N/A   Overcast
5:35 PM 46.9 °F - 45.1 °F 93% 29.73 in 3.0 mi South 8.1 mph - N/A   Overcast
5:55 PM 46.8 °F - 45.3 °F 95% 29.74 in 2.5 mi South 8.1 mph - N/A   Overcast
6:15 PM 46.8 °F - 45.5 °F 95% 29.73 in 2.0 mi SSE 8.1 mph - N/A   Overcast
6:35 PM 46.8 °F - 46.2 °F 98% 29.72 in 2.0 mi SSE 9.2 mph - N/A   Overcast
6:55 PM 46.8 °F - 46.8 °F 100% 29.74 in 2.0 mi SSE 8.1 mph - N/A   Overcast
7:15 PM 46.8 °F - 46.8 °F 100% 29.75 in 2.0 mi South 9.2 mph - N/A   Overcast
7:35 PM 46.6 °F - 46.6 °F 100% 29.76 in 2.0 mi South 6.9 mph - N/A   Overcast
7:55 PM 46.6 °F - 46.6 °F 100% 29.76 in 2.5 mi SSE 8.1 mph - N/A   Overcast
8:15 PM 46.8 °F - 46.8 °F 100% 29.78 in 2.5 mi South 6.9 mph - N/A   Overcast
8:35 PM 46.8 °F - 46.8 °F 100% 29.77 in 2.0 mi South 8.1 mph - N/A   Overcast
8:55 PM 46.8 °F - 46.8 °F 100% 29.78 in 1.8 mi South 6.9 mph - N/A   Overcast
9:15 PM 46.9 °F - 46.9 °F 100% 29.77 in 2.0 mi South 8.1 mph - N/A   Overcast
9:35 PM 46.9 °F - 46.9 °F 100% 29.78 in 2.5 mi South 8.1 mph - N/A   Overcast
9:55 PM 46.9 °F - 46.9 °F 100% 29.78 in 2.5 mi South 5.8 mph - N/A   Overcast
10:15 PM 46.9 °F - 46.9 °F 100% 29.76 in 2.5 mi South 8.1 mph - N/A   Overcast
10:35 PM 46.9 °F - 46.4 °F 98% 29.76 in 3.0 mi South 6.9 mph - N/A   Overcast
10:55 PM 46.9 °F - 45.9 °F 96% 29.77 in 3.0 mi South 5.8 mph - N/A   Overcast
11:15 PM 46.4 °F 44.3 °F 45.5 °F 97% 29.76 in 2.5 mi SE 4.6 mph - N/A   Overcast
11:35 PM 45.7 °F 44.4 °F 44.8 °F 97% 29.76 in 2.5 mi SE 3.5 mph - N/A   Overcast
11:55 PM 45.3 °F 44.0 °F 45.0 °F 99% 29.76 in 2.0 mi SE 3.5 mph - N/A   Overcast